Kalaeloa, HI

10:40 AM HST on May 26, 2017 (GMT -1000)
Kalaeloa (John Rodgers Field)

Weather History for PHJR - December, 2012

Change the Weather History Date:

Sunday, December 16, 2012

  Actual Average (PHHI) Record (PHHI)
Temperature  
Mean Temperature 76 °F -  
Max Temperature 82 °F 74 °F 80 °F (2003)
Min Temperature 71 °F 63 °F 53 °F (2005)
Cooling Degree Days 12    
Growing Degree Days 26 (Base 50)    
Moisture  
Dew Point 63 °F    
Average Humidity 66    
Maximum Humidity 83    
Minimum Humidity 45    
Precipitation  
Precipitation 0.00 in - - ()
Sea Level Pressure  
Sea Level Pressure 30.11 in    
Wind  
Wind Speed 8 mph (ENE)    
Max Wind Speed 15 mph    
Max Gust Speed 28 mph    
Visibility 10 miles    
Events Rain    
Averages and records for this station are not official NWS values.
T = Trace of Precipitation, MM = Missing Value Source: NWS Daily Summary

Daily Weather History Graph

Daily Weather History Graph

Search for Another Location

Airport or City:

Trip Planner

Search our weather history database for the weather conditions in past years. The results will help you decide how hot, cold, wet, or windy it might be!

Date:

Astronomy

Dec. 16, 2012 Rise Set
Actual Time 7:03 AM HST 5:53 PM HST
Civil Twilight 6:38 AM HST 6:17 PM HST
Nautical Twilight 6:11 AM HST 6:45 PM HST
Astronomical Twilight 5:43 AM HST 7:12 PM HST
Moon 10:05 AM HST (12/16) 9:54 PM HST (12/16)
Length of Visible Light 11h 39m
Length of Day
10h 50m
Waxing Crescent, 17% of the Moon is Illuminated
Dec 16
Waxing Crescent
Dec 19
First Quarter
Dec 28
Full
Jan 4
Last Quarter
Jan 11
New

Hourly Weather History & Observations

Time (HST) Temp. Heat Index Dew Point Humidity Pressure Visibility Wind Dir Wind Speed Gust Speed Precip Events Conditions
12:53 AM 72.0 °F - 64.0 °F 76% 30.14 in 10.0 mi Variable 3.5 mph - N/A   Overcast
1:53 AM 73.9 °F - 63.0 °F 68% 30.13 in 10.0 mi ENE 9.2 mph - N/A   Overcast
2:53 AM 73.0 °F - 63.0 °F 71% 30.12 in 10.0 mi ENE 5.8 mph - N/A   Overcast
3:53 AM 73.9 °F - 62.1 °F 66% 30.12 in 10.0 mi ENE 8.1 mph 18.4 mph N/A   Overcast
4:53 AM 73.0 °F - 62.1 °F 68% 30.10 in 10.0 mi ENE 9.2 mph - N/A   Scattered Clouds
5:53 AM 73.0 °F - 62.1 °F 68% 30.12 in 10.0 mi East 6.9 mph - N/A   Mostly Cloudy
6:53 AM 73.0 °F - 61.0 °F 66% 30.13 in 10.0 mi East 11.5 mph 18.4 mph N/A   Partly Cloudy
7:53 AM 73.9 °F - 59.0 °F 59% 30.14 in 10.0 mi Variable 6.9 mph - N/A   Clear
8:53 AM 75.9 °F - 61.0 °F 60% 30.15 in 10.0 mi East 10.4 mph 21.9 mph N/A   Clear
9:53 AM 79.0 °F - 61.0 °F 54% 30.15 in 10.0 mi East 10.4 mph 24.2 mph N/A   Partly Cloudy
10:53 AM 79.0 °F - 62.1 °F 56% 30.14 in 10.0 mi East 13.8 mph 25.3 mph N/A   Partly Cloudy
11:53 AM 79.0 °F - 62.1 °F 56% 30.13 in 10.0 mi East 11.5 mph 21.9 mph N/A   Mostly Cloudy
12:53 PM 82.0 °F 82.7 °F 61.0 °F 49% 30.09 in 10.0 mi East 10.4 mph 27.6 mph N/A   Scattered Clouds
1:53 PM 82.0 °F 82.1 °F 59.0 °F 45% 30.06 in 10.0 mi East 15.0 mph 27.6 mph N/A   Clear
2:53 PM 81.0 °F 81.6 °F 60.1 °F 49% 30.05 in 10.0 mi East 13.8 mph 24.2 mph N/A   Clear
3:53 PM 80.1 °F 81.1 °F 61.0 °F 52% 30.04 in 10.0 mi East 12.7 mph 24.2 mph N/A   Clear
4:53 PM 78.1 °F - 63.0 °F 60% 30.07 in 10.0 mi ENE 9.2 mph 20.7 mph N/A   Clear
5:53 PM 75.0 °F - 64.9 °F 71% 30.08 in 10.0 mi Variable 6.9 mph - N/A   Clear
6:53 PM 73.0 °F - 66.0 °F 79% 30.10 in 10.0 mi ENE 8.1 mph - N/A   Clear
7:53 PM 73.0 °F - 66.0 °F 79% 30.11 in 10.0 mi ENE 9.2 mph 19.6 mph N/A   Mostly Cloudy
8:33 PM 71.6 °F - 66.2 °F 83% 30.10 in 7.0 mi ENE 8.1 mph 21.9 mph 0.00 in Rain Light Rain
8:45 PM 71.6 °F - 66.2 °F 83% 30.10 in 10.0 mi Variable 5.8 mph - 0.00 in   Mostly Cloudy
8:53 PM 72.0 °F - 66.0 °F 81% 30.12 in 10.0 mi ENE 6.9 mph 18.4 mph 0.00 in   Mostly Cloudy
9:53 PM 73.0 °F - 66.0 °F 79% 30.14 in 9.0 mi ENE 9.2 mph 18.4 mph 0.00 in Rain Light Rain
10:53 PM 72.0 °F - 64.0 °F 76% 30.15 in 10.0 mi ENE 8.1 mph - 0.00 in   Scattered Clouds
11:53 PM 73.0 °F - 63.0 °F 71% 30.14 in 10.0 mi ENE 6.9 mph - N/A   Partly Cloudy